Погода Сурское

Погода Сурское : погода сейчас, прогноз погоды и архив. Всё, что Вы хотите узнать о погоде Сурское!

Поиск расширенной информации на нашем сайте:

Другие новости

Новости СМИ2

Главная страница сайта

Новости сайта

03.07.2017

Напоминаем, что на нашем специализированном сайте Метеоцентр.Азия вы можете получить высокодетализированные автоматические прогнозы погоды по пунктам России, СНГ и мира в авиационном формате (включающие направление и скорость ветра, видимость, явления погоды, количество и форму облачности, нижнюю и верхнюю границу облачности).

Рекомендуем: Первые признаки беременности.

Погода Сурское - сегодня

Время (UTC), дата Ветер
(°,м/с) 
Видим.   Явления Облачность Т
(°С)
Тd
(°С)
f(%) Тe
(°С)
Pmin
(гПа)
dP
(гПа)
Po
(мм)
O2
(г/м3)
Тmin Tmax R s Состояние
почвы
03 20.09.18 тихо ()   20000 м    8/0 средняя 
[Ac trans]
+9.1 +7.4 89 +9  1013.2  0.6  751  292  +8.4        сухая 
06 20.09.18 260 (З) 20000 м    10/10 720 м 
[Sc]
+12.3 +9.1 81 +14  1013.2  0.1  751  288           
09 20.09.18 250 (З) 20000 м  {дождь}  8/5 600 м средняя 
[Sc|Ac trans]
+15.2 +10.4 73 +19  1012.3  -0.7  750  285           
18 20.09.18 310 (СЗ) 20000 м  {ливн. осадки}  3/3 600 м кучево-дожд. 
[Cb calv]
+17 +11.8 71 +22  1010.6  0.8  749  282           
21 20.09.18 330 (СЗ) 20000 м    8/8 600 м 
[Sc]
+14.6 +11.7 83 +19  1011.8  1.1  750  285           
03 21.09.18 320 (СЗ) 20000 м    10/10 660 м 
[Sc]
+14.9 +11.8 82 +20  1014.6  1.5  752  285  +13.3    0.3    сухая 
06 21.09.18 290 (З) 20000 м    8/8 600 м 
[Sc]
+15.9 +12.3 79 +21  1016.4  1.8  753  285           
09 21.09.18 330 (СЗ) 20000 м    8/8 800 м 
[Cu med, cong]
+19.1 +12 63 +24  1017.1  0.8  754  282           
18 21.09.18 290 (З) 20000 м    6/3 600 м средняя 
[Cu med, cong|Ac cuf]
+13.5 +10.4 82 +17  1019.6  1.1  756  288           
21 21.09.18 тихо ()   20000 м    8/0 средняя 
[Ac As]
+12.8 +10.5 86 +14  1020.4  0.8  756  289           
00 22.09.18 120 (ЮВ) 20000 м    6/0 средняя 
[Ac As]
+12 +9.9 87 +14  1021.1  0.6  757  290           
03 22.09.18 160 (Ю) 20000 м    5/0 верхняя 
[Ci sp]
+10.3 +8.9 91 +11  1021.9  0.7  757  292  +10.3        сухая 
06 22.09.18 150 (ЮВ) 20000 м    ясно 
+18.7 +12 65 +24  1021.9  0.4  758  283           
09 22.09.18 240 (ЮЗ) 20000 м    1/1 600 м 
[Cu hum]
+24.4 +10.6 42 +26  1021  -0.7  757  278           
12 22.09.18 240 (ЮЗ) 20000 м    3/3 600 м 
[Cu med, cong]
+24.9 +9.9 39 +26  1019.8  -1.1  756  278           
15 22.09.18 тихо ()   20000 м    ясно 
+18.8 +12 65 +23  1019.1  -1  755  283    +25.4       
18 22.09.18 290 (З) 20000 м    ясно 
+11.4 +9.4 87 +13  1019.4  755  291           
21 22.09.18 290 (З) 20000 м    ясно 
+8.7 +7.4 92 +10  1019.2  -0.3  755  294           
00 23.09.18 тихо ()   20000 м    ясно 
+6.8 +5.7 93 +7  1018.8  -0.4  755  296           
06 23.09.18 160 (Ю) 20000 м    3/0 верхняя 
[Ci fib]
+18.4 +11.1 62 +23  1016.6  -1.1  754  282           
09 23.09.18 190 (Ю) 4{11}  20000 м    5/5 600 м 
[Cu hum]
+23.8 +10.2 42 +25  1014.4  -2  752  277           
15 23.09.18 160 (Ю) 2{12}  20000 м    8/0 верхняя 
[Ci]
+21.7 +8.4 42 +22  1010.3  -1.9  749  278    +24.9       
18 23.09.18 160 (Ю) 20000 м    3/0 верхняя 
[Ci fib]
+18.1 +9.4 57 +19  1009.6  -0.8  748  281           
21 23.09.18 150 (ЮВ) 20000 м    8/0 верхняя 
[Ci]
+16.3 +8.3 59 +17  1008.3  -1.3  747  283           
00 24.09.18 060 (СВ) 20000 м    9/0 средняя 
[Ac lent]
+12.9 +7.2 68 +14  1006.9  -1.5  746  286           
Время (UTC), дата Ветер
(°,м/с) 
Видим.   Явления Облачность Т
(°С)
Тd
(°С)
f(%) Тe
(°С)
Pmin
(гПа)
dP
(гПа)
Po
(мм)
O2
(г/м3)
Тmin Tmax R s Состояние
почвы

Для получения пояснительной информации подведите курсор к названию столбца.

ПОГОДА Сурское - архив

Всё, что Вы хотите узнать о погоде Сурское - удобно и подробно!

Выберите нужную дату (начиная с 1 января 2015* года) и нажмите кнопку "Найти".
Будут отображены архивные сводки погоды по пункту Сурское, начиная с указанной даты.


Отображать данные в формате CSV (для использования в таблицах Excel)


Внимание! Наш архив погоды предназначен исключительно для личного некоммерческого использования в познавательных целях. Если Вам необходимы официальные справки о состоянии погоды (для производственных, юридических, коммерческих и т.п. целей), обращайтесь в органы Росгидромета.

*Примечание: данная дата относится к архиву по метеостанциям СССР (Россия, СНГ, Балтия).
Архив по метеостанциям Зарубежной Европы и Азии (кроме Китая) хранится 10 дней, по другим регионам земного шара (Китай, Африка, Америка, Австралия, Океания) - 1 день.

Сурское - район местоположения метеостанции


Название, широта, долгота, высота метеостанции:
Сурское 54.5°ш. 46.7°д. 100 м над ур. моря [Российская Федерация]

Дополнительная информация

В oтличие oт бoльшинства пoгoдных сайтoв мы публикуем пoдрoбную метеoинфoрмацию в детальнoм прoфессиoнальнoм фoрмате.

Характеристики температуры и влажнoсти вoздуха измеряются на высoте 2 м в тени вдали oт зданий и деревьев.
Скoрoсть ветра измеряется на высoте 10 м (на урoвне рoста челoвека скoрoсть ветра ниже в 1.5-2 раза). Если метеoстанция нахoдится в гoрoде или в лесу, тo скoрoсть ветра занижена на 2-4 м/с пo сравнению с oткрытым местoм. Скoрoсть ветра над акватoриями крупных рек и oзёр, а также на вершинах хoлмoв на 2-5 м/с выше, чем в oбычных услoвиях.
Атмoсфернoе давление в разных тoчках местнoсти мoжет значительнo oтличаться oт давления на метеoстанции, в зависимoсти oт услoвий рельефа (при пoдъёме на 10 м давление пoнижается примернo на 1 мм рт.ст.).